Weather History for Harrisburg, IL

Change the Weather History Date:

Wednesday, February 19, 2014

  Actual Average (KMWA) Record (KMWA)
Temperature  
Mean Temperature 46 °F -  
Max Temperature 53 °F 47 °F 69 °F (1986)
Min Temperature 38 °F 29 °F -8 °F (1993)
Degree Days  
Heating Degree Days 20    
Moisture  
Dew Point 38 °F    
Average Humidity 73    
Maximum Humidity 100    
Minimum Humidity 53    
Precipitation  
Precipitation 0.00 in - - ()
Sea Level Pressure  
Sea Level Pressure 29.97 in    
Wind  
Wind Speed 8 mph (WNW)    
Max Wind Speed 16 mph    
Max Gust Speed 22 mph    
Visibility 10 miles    
Events      
Averages and records for this station are not official NWS values.
T = Trace of Precipitation, MM = Missing Value Source: NWS Daily Summary

Daily Weather History Graph

Daily Weather History Graph

Search for Another Location

Airport:

Trip Planner

Search our weather history database for the weather conditions in past years. The results will help you decide how hot, cold, wet, or windy it might be!

Date:

Astronomy

Feb. 19, 2014 Rise Set
Actual Time 6:39 AM CST 5:37 PM CST
Civil Twilight 6:12 AM CST 6:04 PM CST
Nautical Twilight 5:41 AM CST 6:34 PM CST
Astronomical Twilight 5:11 AM CST 7:05 PM CST
Moon 10:24 PM CST (2/19) 8:50 AM CST (2/19)
Length of Visible Light 11h 51m
Length of Day
10h 58m
Waning Gibbous, 79% of the Moon is Illuminated
Feb 19
Waning Gibbous
Feb 22
Last Quarter
Mar 1
New
Mar 8
First Quarter
Mar 16
Full

Hourly Weather History & Observations

Time (CST) Temp. Windchill Dew Point Humidity Pressure Visibility Wind Dir Wind Speed Gust Speed Precip Events Conditions
12:15 AM 47.5 °F - 46.8 °F 97% 29.81 in 10.0 mi WSW 9.2 mph - N/A   Clear
12:35 AM 51.3 °F - 50.7 °F 98% 29.81 in 7.0 mi WSW 9.2 mph - N/A   Clear
12:55 AM 53.2 °F - 52.5 °F 97% 29.81 in 7.0 mi WSW 9.2 mph - N/A   Clear
1:15 AM 53.1 °F - 52.3 °F 97% 29.81 in 7.0 mi WSW 10.4 mph - N/A   Clear
1:35 AM 53.1 °F - 52.7 °F 99% 29.81 in 5.0 mi WSW 9.2 mph - N/A   Clear
1:55 AM 51.8 °F - 51.6 °F 99% 29.81 in 4.0 mi WSW 9.2 mph - N/A   Clear
2:15 AM 52.0 °F - 52.0 °F 100% 29.82 in 5.0 mi WSW 9.2 mph - N/A   Clear
2:35 AM 51.4 °F - 51.4 °F 100% 29.83 in 5.0 mi WSW 10.4 mph - N/A   Clear
2:55 AM 51.6 °F - 50.0 °F 94% 29.83 in 7.0 mi West 12.7 mph - N/A   Clear
3:15 AM 51.1 °F - 47.3 °F 87% 29.85 in 10.0 mi West 12.7 mph - N/A   Clear
3:35 AM 50.2 °F - 42.4 °F 75% 29.86 in 10.0 mi West 16.1 mph 21.9 mph N/A   Clear
3:55 AM 48.6 °F - 40.1 °F 73% 29.87 in 10.0 mi WNW 12.7 mph - N/A   Clear
4:15 AM 47.5 °F - 37.6 °F 69% 29.89 in 10.0 mi WNW 12.7 mph - N/A   Clear
4:35 AM 44.8 °F 39.4 °F 35.1 °F 69% 29.91 in 10.0 mi WNW 10.4 mph - N/A   Clear
4:55 AM 42.6 °F 37.8 °F 33.8 °F 71% 29.92 in 10.0 mi WNW 8.1 mph - N/A   Clear
5:15 AM 43.3 °F 37.7 °F 32.9 °F 67% 29.93 in 10.0 mi WNW 10.4 mph - N/A   Clear
5:35 AM 43.0 °F 37.7 °F 32.5 °F 67% 29.94 in 10.0 mi WNW 9.2 mph - N/A   Clear
5:55 AM 41.0 °F 36.4 °F 32.0 °F 70% 29.95 in 10.0 mi West 6.9 mph - N/A   Clear
6:15 AM 39.7 °F 34.9 °F 32.0 °F 74% 29.96 in 10.0 mi West 6.9 mph - N/A   Clear
6:35 AM 39.0 °F 33.4 °F 31.8 °F 75% 29.97 in 10.0 mi West 8.1 mph - N/A   Clear
6:55 AM 38.1 °F 33.7 °F 32.0 °F 79% 29.98 in 10.0 mi West 5.8 mph - N/A   Clear
7:15 AM 40.3 °F 36.3 °F 32.2 °F 73% 30.00 in 10.0 mi West 5.8 mph - N/A   Clear
7:35 AM 39.2 °F 34.2 °F 32.4 °F 76% 30.01 in 10.0 mi West 6.9 mph - N/A   Clear
7:55 AM 39.4 °F 33.8 °F 32.5 °F 76% 30.02 in 10.0 mi West 8.1 mph - N/A   Clear
8:15 AM 40.8 °F 35.6 °F 33.4 °F 75% 30.04 in 10.0 mi WNW 8.1 mph - N/A   Clear
8:35 AM 42.6 °F 37.2 °F 34.7 °F 74% 30.04 in 10.0 mi WNW 9.2 mph - N/A   Clear
8:55 AM 43.9 °F 39.3 °F 34.7 °F 70% 30.05 in 10.0 mi WNW 8.1 mph - N/A   Clear
9:15 AM 45.0 °F 39.3 °F 35.1 °F 68% 30.06 in 10.0 mi WNW 11.5 mph - N/A   Clear
9:35 AM 46.2 °F 42.2 °F 36.1 °F 68% 30.06 in 10.0 mi NW 8.1 mph - N/A   Clear
9:55 AM 46.6 °F - 35.6 °F 66% 30.06 in 10.0 mi NW 9.2 mph - N/A   Clear
10:15 AM 47.1 °F - 36.1 °F 66% 30.07 in 10.0 mi NW 8.1 mph - N/A   Clear
10:35 AM 47.5 °F - 36.3 °F 65% 30.06 in 10.0 mi NNW 9.2 mph - N/A   Clear
10:55 AM 48.4 °F - 36.5 °F 64% 30.06 in 10.0 mi North 6.9 mph - N/A   Clear
11:15 AM 48.7 °F - 35.6 °F 60% 30.04 in 10.0 mi North 5.8 mph - N/A   Clear
11:35 AM 50.0 °F - 36.3 °F 59% 30.04 in 10.0 mi NNE 3.5 mph - N/A   Clear
11:55 AM 50.7 °F - 36.9 °F 59% 30.07 in 10.0 mi SW 4.6 mph - N/A   Clear
12:15 PM 50.2 °F - 36.0 °F 58% 30.08 in 10.0 mi SSW 3.5 mph - N/A   Clear
12:35 PM 51.4 °F - 37.2 °F 58% 30.07 in 10.0 mi SSW 3.5 mph - N/A   Clear
12:55 PM 52.3 °F - 37.9 °F 58% 30.05 in 10.0 mi West 6.9 mph - N/A   Clear
1:15 PM 52.7 °F - 37.2 °F 56% 30.05 in 10.0 mi WNW 4.6 mph - N/A   Clear
1:35 PM 53.1 °F - 36.3 °F 53% 30.04 in 10.0 mi NW 3.5 mph - N/A   Clear
1:55 PM 53.2 °F - 36.3 °F 53% 30.03 in 10.0 mi Calm Calm - N/A   Clear
2:15 PM 52.9 °F - 36.3 °F 53% 30.04 in 10.0 mi Calm Calm - N/A   Clear
2:35 PM 52.7 °F - 37.4 °F 56% 30.03 in 10.0 mi Calm Calm - N/A   Clear
2:55 PM 52.2 °F - 37.8 °F 58% 30.04 in 10.0 mi SE 4.6 mph - N/A   Clear
3:15 PM 52.3 °F - 37.9 °F 58% 30.03 in 10.0 mi ESE 3.5 mph - N/A   Clear
3:35 PM 51.3 °F - 39.9 °F 65% 30.03 in 10.0 mi East 5.8 mph - N/A   Clear
3:55 PM 50.4 °F - 39.6 °F 66% 30.02 in 10.0 mi East 6.9 mph - N/A   Clear
4:15 PM 49.6 °F - 38.5 °F 65% 30.02 in 10.0 mi East 6.9 mph - N/A   Clear
4:35 PM 48.2 °F - 38.5 °F 69% 30.02 in 10.0 mi ESE 6.9 mph - N/A   Clear
4:55 PM 46.8 °F - 39.2 °F 75% 30.01 in 10.0 mi East 8.1 mph - N/A   Clear
5:00 PM 45.9 °F 42.3 °F 39.0 °F 77% 30.01 in 10.0 mi East 6.9 mph - N/A   Clear
5:15 PM 46.6 °F - 37.8 °F 71% 30.00 in 10.0 mi ENE 8.1 mph - N/A   Clear
5:35 PM 44.8 °F 39.9 °F 36.9 °F 74% 30.00 in 10.0 mi East 9.2 mph - N/A   Clear
5:55 PM 44.6 °F 40.7 °F 36.0 °F 72% 30.01 in 10.0 mi East 6.9 mph - N/A   Clear
6:35 PM 42.3 °F 37.9 °F 35.6 °F 77% 30.02 in 10.0 mi ESE 6.9 mph - N/A   Clear
6:55 PM 41.4 °F 37.6 °F 35.2 °F 79% 30.01 in 10.0 mi East 5.8 mph - N/A   Clear
7:15 PM 41.5 °F 36.4 °F 35.1 °F 78% 29.99 in 10.0 mi East 8.1 mph - N/A   Clear
7:40 PM 41.9 °F 36.9 °F 34.9 °F 76% 29.98 in 10.0 mi East 8.1 mph - N/A   Clear
8:15 PM 40.1 °F 34.7 °F 34.7 °F 81% 29.97 in 10.0 mi East 8.1 mph - N/A   Clear
8:35 PM 39.9 °F 35.1 °F 34.5 °F 81% 29.96 in 10.0 mi East 6.9 mph - N/A   Clear
8:55 PM 39.9 °F 34.5 °F 33.8 °F 79% 29.96 in 10.0 mi East 8.1 mph - N/A   Clear
9:15 PM 41.0 °F 35.8 °F 34.7 °F 78% 29.95 in 10.0 mi East 8.1 mph - N/A   Mostly Cloudy
9:55 PM 42.1 °F 37.7 °F 35.6 °F 78% 29.94 in 10.0 mi East 6.9 mph - N/A   Overcast
10:15 PM 42.8 °F 38.6 °F 35.8 °F 76% 29.93 in 10.0 mi East 6.9 mph - N/A   Overcast
10:35 PM 43.5 °F 38.3 °F 35.6 °F 74% 29.92 in 10.0 mi ESE 9.2 mph - N/A   Mostly Cloudy
10:55 PM 44.1 °F 38.6 °F 36.0 °F 73% 29.90 in 10.0 mi East 10.4 mph - N/A   Mostly Cloudy
11:15 PM 44.1 °F 38.6 °F 36.0 °F 73% 29.89 in 10.0 mi East 10.4 mph - N/A   Overcast
11:35 PM 44.2 °F 39.7 °F 36.1 °F 73% 29.88 in 10.0 mi East 8.1 mph - N/A   Overcast
11:55 PM 44.6 °F 39.7 °F 36.1 °F 72% 29.86 in 10.0 mi East 9.2 mph - N/A   Overcast